Погода Туапсе

Хотите узнать прогноз погоды Туапсе? Тогда Вам сюда: Погода Туапсе

Поиск расширенной информации на нашем сайте:

Полезная информация:

Новости сайта



02.01.2020
Опубликован Долгосрочный прогноз погоды по городам России и ближнего зарубежья на январь 2020 года.
Карты: Прогноз на январь и февраль 2020 года, Сравнение прогнозируемой аномалии приземной температуры воздуха на январь 2020 года по разным моделям.




Погода Туапсе - сегодня

Время (UTC), дата Ветер
(°,м/с) 
Видим.   Явления Облачность Т
(°С)
Тd
(°С)
f(%) Тe
(°С)
Pmin
(гПа)
dP
(гПа)
Po
(мм)
O2
(г/м3)
Тmin Tmax R s Состояние
почвы
00 16.01.22 040 (СВ) 10 км    4/3 1000 м кучево-дожд., средняя 
[Cb cap|Ac cast]
-0.8 -4 79 1013.1  1.4  754  305           
03 16.01.22 050 (СВ) 10 км    4/3 1000 м кучево-дожд., средняя 
[Cb cap|Ac cast]
-0.7 -4.1 78 1014.2  1.1  755  305  -1.3         
06 16.01.22 040 (СВ) 20000 м    4/3 1000 м средняя 
[Cu Sc|Ac trans]
-0.2 -3.5 78 -1  1016.4  2.2  756  305           
09 16.01.22 300 (СЗ) 20000 м  в посл. час ливневой снег  8/6 1000 м кучево-дожд., средняя 
[Cb cap|Ac trans]
+3.7 -2.1 66 +5  1017.8  1.5  758  301           
12 16.01.22 030 (СВ) 20000 м  в посл. час ливневой снег  8/6 1000 м кучево-дожд., средняя 
[Cb cap|Ac trans]
+4.8 -5.7 46 +6  1018.2  0.5  758  301           
15 16.01.22 350 (С) 10 км  {ливн. осадки}  4/4 1000 м кучево-дожд. 
[Cb cap]
+1 -6.2 59 +2  1020.5  2.1  760  306    +5.7  0.1     
18 16.01.22 020 (С) 10 км  {ливн. осадки}  6/6 1000 м 
[Sc]
-0.4 -7.2 60 1022  1.5  761  308           
21 16.01.22 010 (С) 10 км    8/4 1000 м средняя 
[Sc|Ac trans]
-0.3 -5.6 67 -1  1022.6  0.6  761  308           
00 17.01.22 020 (С) 10 км    10/10 1000 м кучево-дожд. 
[Cb cap]
+0.4 -6 62 1022.8  0.2  761  307           
03 17.01.22 040 (СВ) 10 км    9/9 1000 м кучево-дожд. 
[Cb cap]
+0 -5.3 67 -1  1022.7  -0.1  761  307  -0.7         
06 17.01.22 060 (СВ) 20000 м    9/9 1000 м кучево-дожд. 
[Cb cap]
+1.1 -5.7 60 1022.9  0.2  761  306           
09 17.01.22 130 (ЮВ) 7-13{14}  10 км  слаб. ливневой снег  10/10 600 м кучево-дожд. 
[Cb cap]
+3.6 -4.6 55 1021.7  -1.1  761  303           
12 17.01.22 150 (ЮВ) 7-13{15}  20000 м  {ливн. осадки}  10/8 1000 м кучево-дожд., средняя 
[Cb cap|Ac As]
+5.3 -1.8 60 +3  1019.6  -2  759  300           
15 17.01.22 160 (Ю) 6-14{15}  10 км  в посл. час ливневой дождь  10/10 600 м кучево-дожд. 
[Cb cap]
+4.9 -0.4 69 +2  1018  -1.6  758  300    +5.5  0.3     
18 17.01.22 150 (ЮВ) 11-18{19}  4000 м  слаб. ливневой дождь  10/10 600 м кучево-дожд. 
[Cb cap]
+4.9 +0.6 74 +1  1016  -2  756  299           
21 17.01.22 140 (ЮВ) 11-20{21}  10 км  {ливн. осадки}  10/10 600 м кучево-дожд. 
[Cb cap]
+5.7 -0.4 65 +2  1013  -3  754  298           
00 18.01.22 170 (Ю) 6-14{21}  4000 м  слаб. ливневой дождь  10/10 600 м кучево-дожд. 
[Cb cap]
+3.5 +1.6 87 +1  1013.4  0.4  754  300           
03 18.01.22 150 (ЮВ) 12  4000 м  слаб. ливневой дождь  10/10 600 м кучево-дожд. 
[Cb cap]
+5.6 -0.1 67 +2  1009.1  -4.2  751  297  +3.1       
06 18.01.22 160 (Ю) 8-17{23}  10 км  слаб. ливневой дождь  10/10 600 м кучево-дожд. 
[Cb cap]
+4.7 +1.2 78 +1  1009.1  -0.1  751  297           
09 18.01.22 150 (ЮВ) 11-22{24}  4000 м  гроза, ливневой дождь  10/10 600 м кучево-дожд. 
[Cb cap]
+3.8 +2.2 89 1008.3  -0.8  751  298           
12 18.01.22 210 (ЮЗ) 7-14{23}  10 км  слаб. ливневой дождь{гроза}  10/10 600 м кучево-дожд. 
[Cb cap]
+5.2 +3.6 89 +2  1007.6  -0.6  750  296           
15 18.01.22 360 (С) 10 км  {ливн. осадки}  10/9 1000 м кучево-дожд., верхняя 
[Cb cap|Ci fib]
+2 -1 80 +3  1011.9  4.1  753  301    +5.6  25     
18 18.01.22 050 (СВ) 10 км  в посл. час ливневой снег  10/10 600 м кучево-дожд. 
[Cb cap]
+1.3 -0.2 90 +1  1013.1  1.2  754  302           
21 18.01.22 300 (СЗ) 4000 м  слаб. ливневой снег  10/10 600 м кучево-дожд. 
[Cb cap]
+0.4 -1.1 90 -1  1015.2  2.1  756  304           
00 19.01.22 100 (В) 4000 м  слаб. ливневой снег  10/10 600 м кучево-дожд. 
[Cb cap]
-0.5 -2.6 86 1017.3  757  306           
Время (UTC), дата Ветер
(°,м/с) 
Видим.   Явления Облачность Т
(°С)
Тd
(°С)
f(%) Тe
(°С)
Pmin
(гПа)
dP
(гПа)
Po
(мм)
O2
(г/м3)
Тmin Tmax R s Состояние
почвы

Для получения пояснительной информации подведите курсор к названию столбца.

ПОГОДА Туапсе - архив

Всё, что Вы хотите узнать о погоде Туапсе - удобно и подробно!

Выберите нужную дату (начиная с 1 января 2019* года) и нажмите кнопку "Найти".
Будут отображены архивные сводки погоды по пункту Туапсе, начиная с указанной даты.


Отображать данные в формате CSV (для использования в таблицах Excel)


Внимание! Наш архив погоды предназначен исключительно для личного некоммерческого использования в познавательных целях. Если Вам необходимы официальные справки о состоянии погоды (для производственных, юридических, коммерческих и т.п. целей), обращайтесь в органы Росгидромета.

*Примечание: данная дата относится к архиву по метеостанциям СССР (Россия, СНГ, Балтия).
Архив по метеостанциям Зарубежной Европы и Азии (кроме Китая) хранится 10 дней, по другим регионам земного шара (Китай, Африка, Америка, Австралия, Океания) - 1 день.

Туапсе - район местоположения метеостанции


Название, широта, долгота, высота метеостанции:
Туапсе 44.1°ш. 39.1°д. 61 м над ур. моря [Российская Федерация]

Дополнительная информация

В oтличие oт бoльшинства пoгoдных сайтoв мы публикуем пoдрoбную метеoинфoрмацию в детальнoм прoфессиoнальнoм фoрмате.

Характеристики температуры и влажнoсти вoздуха измеряются на высoте 2 м в тени вдали oт зданий и деревьев.
Скoрoсть ветра измеряется на высoте 10 м (на урoвне рoста челoвека скoрoсть ветра ниже в 1.5-2 раза). Если метеoстанция нахoдится в гoрoде или в лесу, тo скoрoсть ветра занижена на 2-4 м/с пo сравнению с oткрытым местoм. Скoрoсть ветра над акватoриями крупных рек и oзёр, а также на вершинах хoлмoв на 2-5 м/с выше, чем в oбычных услoвиях.
Атмoсфернoе давление в разных тoчках местнoсти мoжет значительнo oтличаться oт давления на метеoстанции, в зависимoсти oт услoвий рельефа (при пoдъёме на 10 м давление пoнижается примернo на 1 мм рт.ст.).